• In Hungary
  • List of Countries
  • For 7 days
  • Water Temperature
  • Satellite Maps
  • Weather Map
  • News
  • Weather Widgets
  • user-avatar
    Login

    Hourly Weather Bystryanskiy

    Today, 15 December, Friday

    Time Temperature Precipitation Wind Pressure Humidity
    00:00 +4°C° 0 mm 6 mps 755 mmHg 80%
    01:00 +3°C° 0 mm 6 mps 755 mmHg 81%
    02:00 +3°C° 0 mm 6 mps 755 mmHg 81%
    03:00 +3°C° 0 mm 6 mps 755 mmHg 82%
    04:00 +3°C° 0 mm 6 mps 755 mmHg 83%
    05:00 +3°C° 0 mm 6 mps 755 mmHg 83%
    06:00 +3°C° 0 mm 6 mps 755 mmHg 84%
    07:00 +3°C° 0 mm 6 mps 755 mmHg 84%
    08:00 +3°C° 0 mm 6 mps 755 mmHg 85%
    09:00 +3°C° 0 mm 6 mps 755 mmHg 85%
    10:00 +4°C° 0 mm 6 mps 755 mmHg 81%
    11:00 +5°C° 0 mm 6 mps 755 mmHg 78%
    12:00 +7°C° 0 mm 6 mps 755 mmHg 75%
    13:00 +7°C° 0 mm 6 mps 755 mmHg 74%
    14:00 +7°C° 0 mm 6 mps 755 mmHg 73%
    15:00 +7°C° 0 mm 5 mps 755 mmHg 72%
    16:00 +7°C° 0.1 mm 5 mps 755 mmHg 75%
    17:00 +7°C° 0.1 mm 5 mps 756 mmHg 77%
    18:00 +6°C° 0.1 mm 5 mps 756 mmHg 80%
    19:00 +6°C° 0.6 mm 5 mps 756 mmHg 82%
    20:00 +6°C° 0.6 mm 5 mps 756 mmHg 84%
    21:00 +6°C° 0.6 mm 4 mps 757 mmHg 86%
    22:00 +5°C° 0.2 mm 4 mps 757 mmHg 87%
    23:00 +5°C° 0.2 mm 3 mps 757 mmHg 89%

    Tomorrow, 16 December, Saturday

    Time Temperature Precipitation Wind Pressure Humidity
    00:00 +6°C° 0.2 mm 2 mps 757 mmHg 90%
    01:00 +6°C° 0 mm 2 mps 757 mmHg 91%
    02:00 +5°C° 0 mm 2 mps 758 mmHg 91%
    03:00 +5°C° 0 mm 2 mps 758 mmHg 92%
    04:00 +5°C° 0 mm 2 mps 758 mmHg 91%
    05:00 +4°C° 0 mm 3 mps 758 mmHg 91%
    06:00 +4°C° 0 mm 3 mps 758 mmHg 91%
    07:00 +4°C° 0 mm 3 mps 758 mmHg 89%
    08:00 +4°C° 0 mm 3 mps 758 mmHg 87%
    09:00 +4°C° 0 mm 4 mps 758 mmHg 85%
    10:00 +5°C° 0 mm 4 mps 758 mmHg 80%
    11:00 +7°C° 0 mm 5 mps 758 mmHg 74%
    12:00 +8°C° 0 mm 5 mps 758 mmHg 68%
    13:00 +8°C° 0 mm 5 mps 757 mmHg 69%
    14:00 +8°C° 0 mm 5 mps 757 mmHg 69%
    15:00 +8°C° 0 mm 5 mps 757 mmHg 69%
    16:00 +8°C° 0 mm 6 mps 757 mmHg 73%
    17:00 +7°C° 0 mm 6 mps 757 mmHg 77%
    18:00 +5°C° 0 mm 7 mps 757 mmHg 81%
    19:00 +5°C° 0 mm 7 mps 757 mmHg 82%
    20:00 +4°C° 0 mm 7 mps 757 mmHg 83%
    21:00 +4°C° 0 mm 7 mps 757 mmHg 84%
    22:00 +4°C° 0 mm 7 mps 757 mmHg 85%
    23:00 +4°C° 0 mm 7 mps 757 mmHg 86%

    Day after tomorrow, 17 December, Sunday

    Time Temperature Precipitation Wind Pressure Humidity
    00:00 +4°C° 0 mm 7 mps 757 mmHg 86%
    01:00 +3°C° 0 mm 7 mps 756 mmHg 87%
    02:00 +3°C° 0 mm 7 mps 756 mmHg 87%
    03:00 +3°C° 0 mm 7 mps 756 mmHg 87%
    04:00 +3°C° 0 mm 7 mps 756 mmHg 87%
    05:00 +2°C° 0 mm 7 mps 756 mmHg 88%
    06:00 +2°C° 0 mm 7 mps 756 mmHg 88%
    07:00 +1°C° 0 mm 8 mps 756 mmHg 87%
    08:00 +2°C° 0 mm 8 mps 756 mmHg 85%
    09:00 +2°C° 0 mm 8 mps 756 mmHg 84%
    10:00 +4°C° 0 mm 8 mps 756 mmHg 81%
    11:00 +4°C° 0 mm 8 mps 755 mmHg 78%
    12:00 +5°C° 0 mm 8 mps 755 mmHg 74%
    13:00 +5°C° 0 mm 8 mps 755 mmHg 74%
    14:00 +5°C° 0 mm 8 mps 755 mmHg 74%
    15:00 +5°C° 0 mm 8 mps 754 mmHg 73%
    16:00 +5°C° 0 mm 8 mps 754 mmHg 75%
    17:00 +5°C° 0 mm 8 mps 754 mmHg 77%
    18:00 +4°C° 0 mm 7 mps 754 mmHg 79%
    19:00 +5°C° 0 mm 7 mps 754 mmHg 79%
    20:00 +5°C° 0 mm 7 mps 754 mmHg 79%
    21:00 +5°C° 0 mm 7 mps 754 mmHg 79%
    22:00 +5°C° 0 mm 7 mps 754 mmHg 80%
    23:00 +5°C° 0 mm 7 mps 754 mmHg 81%

    18 December, Monday

    Time Temperature Precipitation Wind Pressure Humidity
    00:00 +5°C° 0 mm 7 mps 754 mmHg 82%
    01:00 +5°C° 0.3 mm 7 mps 754 mmHg 83%
    02:00 +5°C° 0.3 mm 7 mps 754 mmHg 84%
    03:00 +5°C° 0.3 mm 7 mps 754 mmHg 85%
    04:00 +5°C° 0.6 mm 7 mps 754 mmHg 86%
    05:00 +4°C° 0.6 mm 6 mps 754 mmHg 86%
    06:00 +4°C° 0.6 mm 6 mps 754 mmHg 87%
    07:00 +4°C° 0.5 mm 6 mps 754 mmHg 87%
    08:00 +4°C° 0.5 mm 6 mps 754 mmHg 87%
    09:00 +5°C° 0.5 mm 6 mps 754 mmHg 88%
    10:00 +5°C° 0.3 mm 6 mps 754 mmHg 86%
    11:00 +5°C° 0.3 mm 6 mps 755 mmHg 85%
    12:00 +7°C° 0.3 mm 5 mps 755 mmHg 83%
    13:00 +7°C° 1 mm 5 mps 755 mmHg 85%
    14:00 +7°C° 1 mm 4 mps 755 mmHg 86%
    15:00 +7°C° 1 mm 3 mps 755 mmHg 88%
    16:00 +7°C° 0 mm 3 mps 755 mmHg 89%
    17:00 +7°C° 0 mm 3 mps 755 mmHg 90%
    18:00 +7°C° 0 mm 2 mps 755 mmHg 91%
    19:00 +7°C° 0.1 mm 2 mps 755 mmHg 92%
    20:00 +6°C° 0.1 mm 2 mps 755 mmHg 92%
    21:00 +6°C° 0.1 mm 2 mps 755 mmHg 93%
    22:00 +6°C° 0.9 mm 2 mps 755 mmHg 92%
    23:00 +6°C° 0.9 mm 2 mps 755 mmHg 92%

    19 December, Tuesday

    Time Temperature Precipitation Wind Pressure Humidity
    00:00 +5°C° 0.9 mm 2 mps 755 mmHg 92%
    01:00 +5°C° 0.5 mm 2 mps 755 mmHg 91%
    02:00 +5°C° 0.5 mm 2 mps 755 mmHg 91%
    03:00 +5°C° 0.5 mm 2 mps 755 mmHg 90%
    04:00 +5°C° 0.4 mm 2 mps 755 mmHg 89%
    05:00 +4°C° 0.4 mm 2 mps 755 mmHg 89%
    06:00 +4°C° 0.4 mm 2 mps 755 mmHg 88%
    07:00 +4°C° 0.3 mm 2 mps 755 mmHg 87%
    08:00 +4°C° 0.3 mm 2 mps 756 mmHg 86%
    09:00 +4°C° 0.3 mm 2 mps 756 mmHg 85%
    10:00 +4°C° 0.1 mm 2 mps 756 mmHg 82%
    11:00 +3°C° 0.1 mm 3 mps 756 mmHg 79%
    12:00 +4°C° 0.1 mm 3 mps 756 mmHg 75%
    13:00 +4°C° 0.1 mm 3 mps 756 mmHg 74%
    14:00 +4°C° 0.1 mm 4 mps 757 mmHg 73%
    15:00 +3°C° 0.1 mm 4 mps 757 mmHg 72%
    16:00 +3°C° 0 mm 4 mps 758 mmHg 74%
    17:00 +2°C° 0 mm 3 mps 758 mmHg 76%
    18:00 +2°C° 0 mm 3 mps 759 mmHg 78%
    19:00 +2°C° 0 mm 3 mps 759 mmHg 77%
    20:00 +2°C° 0 mm 3 mps 760 mmHg 75%
    21:00 +1°C° 0 mm 3 mps 760 mmHg 73%
    22:00 0°C° 0 mm 4 mps 761 mmHg 73%
    23:00 -1°C° 0 mm 4 mps 761 mmHg 72%

    20 December, Wednesday

    Time Temperature Precipitation Wind Pressure Humidity
    00:00 -1°C° 0 mm 4 mps 761 mmHg 71%
    01:00 -2°C° 0 mm 4 mps 762 mmHg 71%
    02:00 -2°C° 0 mm 4 mps 762 mmHg 71%
    03:00 -2°C° 0 mm 3 mps 762 mmHg 71%
    04:00 -2°C° 0 mm 3 mps 762 mmHg 71%
    05:00 -2°C° 0 mm 3 mps 762 mmHg 70%
    06:00 -2°C° 0 mm 3 mps 763 mmHg 70%
    07:00 -2°C° 0 mm 2 mps 763 mmHg 68%
    08:00 -2°C° 0 mm 2 mps 763 mmHg 67%
    09:00 -2°C° 0 mm 2 mps 763 mmHg 65%
    10:00 -1°C° 0 mm 3 mps 763 mmHg 61%
    11:00 0°C° 0 mm 3 mps 763 mmHg 58%
    12:00 0°C° 0 mm 3 mps 763 mmHg 54%
    13:00 0°C° 0 mm 3 mps 763 mmHg 55%
    14:00 +2°C° 0 mm 2 mps 763 mmHg 55%
    15:00 +2°C° 0 mm 2 mps 763 mmHg 56%
    16:00 +1°C° 0 mm 2 mps 763 mmHg 60%
    17:00 +1°C° 0 mm 1 mps 763 mmHg 64%
    18:00 0°C° 0 mm 1 mps 763 mmHg 68%
    19:00 0°C° 0 mm 1 mps 764 mmHg 68%
    20:00 0°C° 0 mm 1 mps 764 mmHg 68%
    21:00 0°C° 0 mm 1 mps 764 mmHg 69%
    22:00 0°C° 0 mm 1 mps 764 mmHg 69%
    23:00 0°C° 0 mm 1 mps 764 mmHg 69%
    Show more